Temp
70 71 72 72 71 71 70 71 71 71 71 71 71 71 71 72 72 72 72 72 72 72 71 71 71 70 69 68 68 69 68 69
70 70 71 71 71 70 70 70 70 70 70 70 70 70 70 71 71 71 71 71 71 71 71 71 70 69 68 68 68 68 68 69
69 72 70 70 70 70 70 70 70 70 70 69 68 67 68 69 69 70 71 71 71 71 70 70 69 68 68 67 67 66 67 68
70 72 70 71 71 70 69 70 70 69 69 68 66 66 66 68 68 70 70 70 70 70 70 69 67 64 64 66 65 66 67 67
72 73 69 70 70 70 69 69 69 69 68 67 65 65 66 65 65 65 64 68 64 65 65 64 65 64 65 65 67 66 67 68
73 73 71 71 70 70 70 70 70 71 70 66 66 67 64 63 63 63 62 62 62 62 62 63 64 66 66 67 68 67 66 68
70 70 71 70 69 70 72 72 72 72 70 67 66 65 65 63 62 62 61 61 61 61 62 63 65 66 67 68 68 68 67 67
70 71 72 72 70 71 72 73 72 71 70 68 65 65 64 63 62 61 61 61 60 61 61 63 65 66 67 68 69 68 67 67
69 71 74 73 73 73 73 72 72 70 69 66 65 64 63 63 63 62 61 61 61 61 62 63 64 66 67 68 69 69 68 68
70 72 73 74 74 74 74 71 70 68 67 66 65 65 64 63 62 62 62 62 61 61 62 63 63 64 65 66 68 70 70 70
68 71 71 72 73 73 72 70 68 67 66 66 66 66 65 64 63 63 63 62 62 62 61 63 63 64 65 66 67 69 70 70
69 69 70 71 71 70 70 68 67 67 66 67 66 66 66 65 64 64 63 62 62 62 62 63 64 64 67 67 66 67 66 66
69 68 68 69 68 67 67 66 66 66 67 68 67 67 67 66 66 65 64 64 63 63 62 63 62 64 64 63 62 64 62 62
70 70 68 68 68 68 68 68 67 68 68 67 68 68 67 67 67 66 65 64 62 62 62 61 62 63 62 61 59 60 59 57
71 71 70 70 70 70 65 66 64 64 66 66 68 68 68 68 68 68 65 66 65 63 63 63 61 62 62 61 56 56 55 56
73 72 71 71 72 70 69 67 67 67 68 68 68 69 69 69 69 69 67 67 65 64 64 65 63 61 60 61 61 59 55 52
74 73 72 71 72 71 70 69 70 71 69 67 68 68 69 69 69 68 68 66 66 65 63 64 63 63 61 59 59 58 57 53
75 73 72 72 71 71 70 70 70 68 68 66 67 68 68 68 69 68 69 67 66 65 65 65 65 63 64 62 60 59 56 53
76 74 71 72 71 71 71 71 71 70 68 68 67 67 67 68 68 68 68 68 67 66 65 66 65 65 63 64 62 61 58 56
77 74 72 72 72 71 72 72 72 72 70 70 68 68 69 70 68 69 69 68 68 66 66 65 65 65 63 63 60 59 59 57
MSLP
1011.58 1012.25 1012.44 1012.84 1013.21 1013.76 1014.15 1014.61 1015.13 1015.58 1016.13 1016.73 1017.19 1017.60 1017.86 1018.25 1018.54 1018.79 1019.13 1019.33 1019.50 1019.82 1020.10 1020.36 1020.59 1020.83 1021.01 1021.23 1021.22 1021.27 1021.44 1021.55
1011.63 1012.13 1012.64 1013.06 1013.47 1013.90 1014.32 1014.79 1015.28 1015.75 1016.16 1016.78 1017.33 1017.77 1018.04 1018.36 1018.69 1018.96 1019.27 1019.66 1019.87 1020.14 1020.40 1020.59 1020.82 1020.95 1021.15 1021.28 1021.41 1021.54 1021.65 1021.75
1011.71 1012.03 1012.67 1013.13 1013.63 1014.15 1014.45 1014.94 1015.47 1015.96 1016.44 1016.86 1017.45 1017.93 1018.24 1018.50 1018.77 1019.03 1019.32 1019.71 1020.05 1020.26 1020.55 1020.74 1021.04 1021.24 1021.18 1021.24 1021.36 1021.59 1021.70 1021.91
1011.28 1011.88 1012.43 1013.10 1013.64 1014.16 1014.73 1015.09 1015.62 1016.11 1016.53 1017.03 1017.45 1017.91 1018.24 1018.54 1018.82 1019.10 1019.36 1019.67 1019.98 1020.27 1020.52 1020.75 1021.04 1021.40 1021.40 1021.39 1021.52 1021.58 1021.67 1021.84
1010.97 1011.57 1012.04 1012.68 1013.39 1014.15 1014.67 1015.19 1015.62 1016.12 1016.58 1017.06 1017.53 1017.95 1018.29 1018.62 1018.93 1019.21 1019.52 1019.77 1020.10 1020.33 1020.53 1020.73 1020.99 1021.26 1021.36 1021.41 1021.40 1021.46 1021.64 1021.80
1010.60 1011.24 1011.79 1012.42 1013.05 1013.76 1014.39 1014.85 1015.46 1015.93 1016.52 1017.01 1017.45 1017.91 1018.34 1018.73 1019.05 1019.28 1019.53 1019.75 1020.15 1020.38 1020.61 1020.71 1020.86 1021.10 1021.23 1021.24 1021.25 1021.40 1021.62 1021.76
1010.13 1010.73 1011.33 1012.07 1012.77 1013.28 1013.98 1014.51 1015.10 1015.65 1016.30 1016.92 1017.23 1017.71 1018.12 1018.57 1018.96 1019.36 1019.58 1019.82 1020.02 1020.29 1020.60 1020.90 1020.91 1020.94 1021.09 1021.14 1021.19 1021.30 1021.53 1021.73
1009.76 1010.35 1010.87 1011.43 1012.16 1012.83 1013.45 1014.15 1014.69 1015.36 1015.89 1016.46 1016.99 1017.34 1017.86 1018.37 1018.82 1019.21 1019.63 1019.88 1020.14 1020.41 1020.64 1020.88 1020.88 1020.92 1021.00 1021.05 1021.06 1021.21 1021.40 1021.59
1009.26 1009.84 1010.52 1011.18 1011.70 1012.42 1012.97 1013.61 1014.21 1014.87 1015.44 1016.04 1016.62 1017.10 1017.51 1018.11 1018.54 1018.96 1019.21 1019.65 1020.12 1020.46 1020.67 1020.87 1020.93 1020.91 1021.01 1020.94 1020.98 1021.10 1021.38 1021.45
1008.72 1009.41 1010.24 1010.86 1011.33 1011.94 1012.42 1013.21 1013.86 1014.40 1015.04 1015.50 1016.09 1016.72 1017.20 1017.74 1018.33 1018.60 1018.97 1019.45 1019.89 1020.34 1020.58 1020.88 1021.01 1021.05 1021.00 1021.01 1020.97 1021.02 1021.07 1021.31
1008.22 1008.76 1009.52 1010.33 1011.06 1011.68 1012.18 1012.80 1013.46 1013.95 1014.48 1014.96 1015.53 1016.12 1016.76 1017.26 1017.75 1018.22 1018.64 1019.23 1019.60 1020.05 1020.37 1020.68 1020.92 1020.94 1020.97 1021.07 1021.08 1021.13 1021.08 1021.30
1007.73 1008.43 1009.14 1010.11 1010.83 1011.55 1012.19 1012.70 1013.21 1013.48 1013.93 1014.37 1014.89 1015.44 1016.03 1016.73 1017.22 1017.72 1018.25 1018.92 1019.34 1019.75 1020.08 1020.36 1020.55 1020.79 1020.98 1021.14 1021.27 1021.43 1021.68 1021.85
1007.05 1007.68 1008.45 1009.40 1010.10 1010.70 1011.33 1011.58 1012.43 1012.90 1013.16 1013.62 1014.21 1014.78 1015.34 1015.94 1016.56 1017.21 1017.72 1018.31 1018.80 1019.26 1019.69 1020.11 1020.40 1020.60 1021.16 1021.57 1021.94 1022.13 1022.17 1022.24
1006.19 1006.58 1007.42 1008.16 1008.89 1009.60 1010.44 1011.01 1011.67 1012.08 1012.50 1012.93 1013.47 1014.16 1014.69 1015.14 1015.66 1016.37 1016.98 1017.67 1018.22 1018.78 1019.29 1019.75 1019.95 1020.11 1020.72 1021.56 1022.22 1022.73 1022.81 1023.12
1004.82 1005.48 1006.11 1006.93 1007.86 1008.96 1009.81 1010.78 1011.47 1011.93 1011.90 1012.19 1012.57 1013.05 1013.74 1014.23 1014.72 1015.30 1016.04 1016.68 1017.35 1017.99 1018.59 1019.06 1019.50 1019.86 1019.77 1020.35 1021.77 1022.41 1023.33 1024.00
1003.63 1004.51 1005.26 1006.20 1007.06 1007.81 1008.29 1008.68 1009.31 1009.37 1009.98 1011.03 1011.76 1012.20 1012.62 1013.17 1013.76 1014.35 1015.13 1015.84 1016.40 1016.97 1017.65 1018.27 1018.76 1019.32 1020.01 1020.07 1019.99 1020.70 1022.59 1024.27
1002.21 1003.36 1004.37 1005.14 1005.75 1006.39 1007.28 1007.72 1007.93 1008.83 1009.65 1010.32 1010.79 1011.38 1011.55 1012.01 1012.65 1013.36 1014.20 1014.86 1015.47 1016.02 1016.71 1017.39 1017.84 1018.29 1018.80 1019.74 1020.16 1020.66 1021.27 1022.79
1001.11 1002.15 1002.91 1003.81 1004.68 1005.22 1005.93 1006.39 1007.23 1007.99 1008.63 1009.32 1009.74 1010.22 1010.92 1011.38 1011.64 1012.26 1013.02 1013.76 1014.40 1015.08 1015.71 1016.26 1016.87 1017.25 1017.73 1018.26 1018.91 1019.86 1020.99 1021.83
999.94 1000.87 1001.86 1002.62 1003.32 1004.10 1004.51 1005.17 1006.03 1006.45 1007.08 1007.87 1008.76 1009.30 1009.76 1009.95 1010.45 1010.97 1011.62 1012.43 1013.39 1014.13 1014.77 1015.31 1015.89 1016.51 1016.93 1017.45 1017.92 1018.54 1019.38 1020.75
998.77 999.56 1000.53 1001.55 1002.24 1002.57 1002.99 1003.94 1004.82 1005.17 1005.95 1006.62 1007.15 1007.77 1007.88 1008.74 1009.57 1010.07 1010.58 1011.46 1012.33 1013.08 1013.82 1014.35 1014.95 1015.57 1016.19 1016.70 1017.34 1018.06 1018.83 1019.90
Wind_Speed
12 11 13 14 15 15 15 16 16 15 15 13 13 13 13 12 12 11 9 9 10 10 10 10 10 10 9 8 7 8 5 4
12 11 10 10 11 14 14 14 14 13 14 13 12 12 12 12 11 11 11 9 8 8 7 9 11 9 9 7 7 7 4 4
11 13 10 9 9 10 14 15 14 13 12 13 11 5 6 9 8 11 11 10 8 7 6 7 8 7 6 6 6 2 3 3
13 15 12 11 8 9 7 9 7 7 7 8 5 6 5 6 7 10 10 10 9 7 6 6 6 3 2 4 2 2 3 4
15 16 12 12 10 7 5 5 5 5 7 7 5 5 4 3 3 3 4 7 3 4 4 3 3 3 3 3 3 4 3 3
17 18 14 12 8 8 8 7 7 7 8 7 6 6 4 4 3 4 4 4 5 4 3 3 3 3 3 2 2 3 3 2
17 16 16 13 11 9 9 9 9 10 9 8 6 6 6 4 4 4 3 3 3 4 3 3 3 3 3 3 2 3 4 2
16 16 16 15 12 12 10 10 10 10 8 9 8 6 5 5 4 4 4 3 3 3 3 3 3 2 2 3 2 2 4 5
17 16 15 15 15 14 11 11 11 11 10 10 9 7 7 6 5 5 4 4 5 3 2 1 2 2 3 2 3 5 4 5
18 15 18 19 18 15 12 10 11 9 8 8 10 9 8 6 5 5 4 4 4 4 3 3 3 3 2 3 3 4 5 5
19 19 22 22 18 14 14 14 10 8 8 8 11 10 9 7 6 4 6 4 4 4 3 3 3 3 3 2 2 1 2 2
17 15 18 19 12 10 8 9 8 8 8 9 12 10 11 9 6 6 6 5 4 4 3 3 3 3 1 0 2 3 3 3
19 19 18 15 12 13 12 13 10 9 9 13 13 12 12 11 7 7 6 7 7 7 4 5 4 3 3 2 4 6 6 5
19 20 19 17 13 12 8 10 9 9 9 11 13 13 13 12 11 9 9 6 7 7 5 3 3 5 4 3 2 1 6 7
21 21 21 20 17 11 4 6 4 5 10 10 13 15 14 15 14 11 10 9 9 8 8 7 5 3 5 5 3 3 3 3
21 20 20 18 18 15 20 15 13 13 12 10 12 16 16 16 14 14 11 9 10 10 8 8 5 5 1 2 2 6 4 2
21 21 20 20 21 19 16 16 13 9 9 13 14 14 17 17 16 15 13 10 11 11 10 10 5 6 5 3 2 2 4 4
20 22 23 22 21 22 22 22 16 11 13 11 12 11 11 15 17 15 15 13 13 11 12 14 12 6 6 5 5 5 4 4
19 22 22 23 24 23 23 22 20 19 16 13 14 12 11 16 18 17 14 14 13 12 12 13 13 11 10 8 4 4 5 3
20 22 22 23 24 25 23 22 14 15 15 13 13 14 16 15 16 15 16 15 14 13 10 10 11 11 11 8 5 5 4 3
Wind_Direction
147 155 151 147 142 143 140 140 139 140 137 135 134 136 137 138 136 133 131 129 131 135 136 127 111 99 88 77 69 108 117 128
152 152 153 153 151 146 142 141 141 142 139 137 138 140 140 140 140 140 138 138 138 135 130 116 109 107 103 84 92 93 128 140
155 155 155 153 152 157 146 146 145 141 140 139 136 140 142 142 146 148 145 148 148 139 126 105 100 100 107 110 109 116 139 151
163 164 162 158 156 153 151 151 149 150 146 148 141 142 146 145 151 155 153 155 151 146 131 117 101 104 94 98 106 121 136 136
171 171 163 159 159 158 148 150 150 151 150 149 141 138 146 142 144 151 150 152 145 142 138 137 153 141 136 147 150 114 122 144
172 176 168 163 157 164 162 163 169 172 173 154 151 162 159 157 156 165 162 160 162 170 168 176 173 163 146 136 131 132 134 154
177 170 171 170 160 166 170 174 178 179 178 174 160 165 174 158 162 168 174 163 173 178 173 187 185 194 166 155 153 147 139 160
175 179 175 174 168 172 172 183 178 182 179 179 170 165 164 173 165 173 180 186 179 174 175 189 202 205 195 184 187 187 152 165
179 176 175 181 181 181 180 185 184 184 183 176 173 170 166 171 175 176 185 174 173 162 179 194 200 219 247 215 197 194 181 184
176 177 185 187 188 186 186 182 186 182 177 172 173 176 173 163 175 187 171 165 171 171 170 200 211 222 251 259 219 202 183 184
180 180 185 189 188 187 189 188 186 180 174 176 178 177 178 175 180 185 160 168 181 177 170 170 194 221 243 249 244 252 154 145
180 180 181 187 181 180 183 187 185 177 182 184 180 184 179 180 182 175 166 170 179 169 168 179 183 217 230 103 35 45 32 47
183 179 181 178 182 183 187 192 185 185 187 187 184 187 185 183 188 184 176 182 190 187 160 182 209 164 96 50 64 65 56 36
188 187 179 184 184 185 188 184 200 192 186 189 186 188 189 189 188 191 186 180 182 183 171 166 192 172 147 113 160 46 42 36
191 190 185 187 185 175 136 145 115 181 197 191 194 189 190 196 195 191 187 189 197 190 185 180 169 189 181 147 128 190 106 3
191 191 189 187 181 183 187 186 192 203 198 191 193 194 196 196 193 196 191 194 195 191 185 190 162 171 169 207 90 139 143 133
191 190 189 185 188 189 191 199 205 190 194 193 194 198 200 196 195 193 198 194 200 189 181 187 190 167 163 153 126 82 100 134
190 188 193 187 188 192 194 201 196 188 189 189 196 198 200 202 196 195 198 198 197 193 192 192 197 188 182 165 163 158 165 145
192 191 194 192 191 194 198 202 195 198 191 192 189 198 200 204 197 195 197 198 195 193 191 197 197 201 182 189 169 162 137 133
195 194 194 192 196 200 201 199 200 202 197 195 197 201 207 197 200 201 201 194 195 189 193 198 194 200 191 181 173 154 132 143